Вернуться в каталог

GEN1A-2

АктивенНаукаSSO
NORAD 69005·PAYLOAD·🇺🇸 United States

Запущен May 3, 2026 с Vandenberg Space Force Base

Loading…

Ближайшие Пролёты (ближайшие 24 часа)

TLE

СвежийSource: Space-Track

Эпоха: Sep 14, 2026, 15:47 UTC

1 69005U 26100AB  26257.65767875  .00002817  00000-0  13086-3 0  9991
2 69005  97.3902 153.8050 0006834  70.9374 289.2601 15.20790260 20412

Отслеживайте GEN1A-2 в реальном времени с AllMySat

Download on the App Store